| time (UTC) | temp F | wind direction | speed knots | gust knots | rain 1hr in | rain 24hr in | rain mn in | humidity % | barometer mb |
| 20260505204533 | 79 | 357 | 2.6 | 11.3 | 0.00 | 0.00 | 0.00 | 45 | 1012.1 |
| 20260505203043 | 78 | 334 | 2.6 | 10.4 | 0.00 | 0.00 | 0.00 | 46 | 1012.2 |
| 20260505201538 | 78 | 12 | 3.5 | 8.7 | 0.00 | 0.00 | 0.00 | 46 | 1012.3 |
| 20260505200038 | 77 | 26 | 4.3 | 10.4 | 0.00 | 0.00 | 0.00 | 47 | 1012.4 |
| 20260505194535 | 77 | 356 | 2.6 | 8.7 | 0.00 | 0.00 | 0.00 | 47 | 1012.6 |
| 20260505193126 | 76 | 350 | 2.6 | 8.7 | 0.00 | 0.00 | 0.00 | 49 | 1012.6 |
| 20260505193116 | 75 | 14 | 3.5 | 10.4 | 0.00 | 0.00 | 0.00 | 50 | 1012.7 |
| 20260505183041 | 72 | 348 | 2.6 | 9.6 | 0.00 | 0.00 | 0.00 | 55 | 1013.0 |
| 20260505174536 | 69 | 340 | 2.6 | 9.6 | 0.00 | 0.00 | 0.00 | 60 | 1013.0 |
| 20260505173035 | 68 | 305 | 2.6 | 9.6 | 0.00 | 0.00 | 0.00 | 61 | 1012.9 |
| 20260505171535 | 68 | 318 | 1.7 | 6.1 | 0.00 | 0.00 | 0.00 | 63 | 1013.0 |
| 20260505170042 | 67 | 310 | 1.7 | 8.7 | 0.00 | 0.00 | 0.00 | 63 | 1012.9 |
| 20260505164535 | 66 | 298 | 1.7 | 9.6 | 0.00 | 0.00 | 0.00 | 65 | 1012.9 |
| 20260505163058 | 65 | 298 | 2.6 | 9.6 | 0.00 | 0.00 | 0.00 | 67 | 1013.0 |
| 20260505161536 | 64 | 289 | 2.6 | 11.3 | 0.00 | 0.00 | 0.00 | 70 | 1013.1 |
| 20260505153035 | 61 | 106 | 0.9 | 6.1 | 0.00 | 0.00 | 0.00 | 81 | 1012.8 |
| 20260505151532 | 60 | 183 | 0.9 | 4.3 | 0.00 | 0.00 | 0.00 | 84 | 1012.7 |
| 20260505124530 | 49 | 261 | 0.0 | 3.5 | 0.00 | 0.00 | 0.00 | 92 | 1011.2 |
| 20260505121608 | 50 | 225 | 0.9 | 1.7 | 0.00 | 0.00 | 0.00 | 90 | 1010.9 |
| 20260505120035 | 51 | 220 | 0.9 | 3.5 | 0.00 | 0.00 | 0.00 | 89 | 1010.9 |
| 20260505114534 | 52 | 201 | 0.0 | 1.7 | 0.00 | 0.00 | 0.00 | 89 | 1010.8 |
| 20260505101531 | 51 | 202 | 0.9 | 2.6 | 0.00 | 0.00 | 0.00 | 91 | 1010.1 |
| 20260505100044 | 51 | 202 | 0.9 | 2.6 | 0.00 | 0.00 | 0.00 | 90 | 1010.0 |
| 20260505094535 | 51 | 209 | 0.9 | 2.6 | 0.00 | 0.00 | 0.00 | 90 | 1009.9 |
| 20260505091535 | 52 | 241 | 0.9 | 3.5 | 0.00 | 0.00 | 0.00 | 89 | 1009.8 |
| 20260505090036 | 52 | 248 | 0.9 | 1.7 | 0.00 | 0.00 | 0.00 | 88 | 1009.7 |
| 20260505084610 | 53 | 296 | 0.0 | 4.3 | 0.00 | 0.00 | 0.00 | 87 | 1009.7 |
| 20260505083033 | 53 | 214 | 1.7 | 3.5 | 0.00 | 0.00 | 0.00 | 85 | 1009.7 |
| 20260505081536 | 54 | 202 | 0.0 | 1.7 | 0.00 | 0.00 | 0.00 | 84 | 1009.6 |
| 20260505080028 | 55 | 202 | 0.0 | 1.7 | 0.00 | 0.00 | 0.00 | 83 | 1009.6 |
| 20260505073037 | 57 | 185 | 0.0 | 0.9 | 0.00 | 0.00 | 0.00 | 78 | 1009.5 |
| 20260505071537 | 58 | 199 | 0.9 | 3.5 | 0.00 | 0.00 | 0.00 | 75 | 1009.3 |
| 20260505070119 | 60 | 230 | 0.9 | 3.5 | 0.00 | 0.00 | 0.00 | 70 | 1009.2 |
| 20260505063034 | 66 | 224 | 0.0 | 4.3 | 0.00 | 0.00 | 0.00 | 60 | 1009.0 |
| 20260505061536 | 68 | 228 | 1.7 | 7.0 | 0.00 | 0.00 | 0.00 | 58 | 1008.9 |
| 20260505060036 | 68 | 254 | 1.7 | 8.7 | 0.00 | 0.00 | 0.00 | 57 | 1008.8 |
| 20260505053036 | 63 | 311 | 3.5 | 9.6 | 0.00 | 0.00 | 0.00 | 65 | 1008.6 |
| 20260505051536 | 64 | 354 | 0.9 | 7.0 | 0.00 | 0.00 | 0.00 | 62 | 1008.7 |
| 20260505041536 | 69 | 211 | 0.0 | 3.5 | 0.00 | 0.00 | 0.00 | 52 | 1007.8 |
| 20260505040050 | 69 | 245 | 0.9 | 6.1 | 0.00 | 0.00 | 0.00 | 52 | 1007.6 |
| 20260505034534 | 68 | 263 | 1.7 | 7.8 | 0.00 | 0.00 | 0.00 | 55 | 1007.4 |
| 20260505033032 | 68 | 230 | 0.9 | 4.3 | 0.00 | 0.00 | 0.00 | 55 | 1007.2 |
| 20260505030038 | 72 | 249 | 0.9 | 6.1 | 0.00 | 0.00 | 0.00 | 48 | 1006.9 |
| 20260505024533 | 74 | 254 | 1.7 | 5.2 | 0.00 | 0.00 | 0.00 | 47 | 1006.7 |
| 20260505021536 | 76 | 257 | 0.9 | 7.0 | 0.00 | 0.00 | 0.00 | 44 | 1006.6 |
| 20260505020035 | 79 | 295 | 0.9 | 6.1 | 0.00 | 0.00 | 0.00 | 42 | 1006.6 |
| 20260505014645 | 81 | 315 | 1.7 | 7.0 | 0.00 | 0.00 | 0.00 | 40 | 1006.6 |
| 20260505013147 | 82 | 317 | 2.6 | 7.8 | 0.00 | 0.00 | 0.00 | 40 | 1006.6 |
| 20260505011536 | 82 | 345 | 1.7 | 6.1 | 0.00 | 0.00 | 0.00 | 42 | 1006.6 |
| 20260505010038 | 83 | 2 | 0.9 | 6.1 | 0.00 | 0.00 | 0.00 | 41 | 1006.6 |
| 20260505004530 | 82 | 351 | 1.7 | 7.0 | 0.00 | 0.00 | 0.00 | 41 | 1006.6 |
| 20260505003036 | 82 | 12 | 1.7 | 5.2 | 0.00 | 0.00 | 0.00 | 41 | 1006.7 |
| 20260505001536 | 83 | 23 | 5.2 | 11.3 | 0.00 | 0.00 | 0.00 | 40 | 1006.7 |
| 20260505000043 | 83 | 4 | 1.7 | 5.2 | 0.00 | 0.00 | 0.00 | 40 | 1006.8 |
| 20260504234536 | 82 | 20 | 1.7 | 9.6 | 0.00 | 0.00 | 0.00 | 43 | 1006.7 |
| 20260504233039 | 82 | 23 | 4.3 | 10.4 | 0.00 | 0.00 | 0.00 | 41 | 1006.7 |
| 20260504231536 | 84 | 18 | 4.3 | 9.6 | 0.00 | 0.00 | 0.00 | 39 | 1006.8 |
| 20260504230038 | 85 | 9 | 3.5 | 8.7 | 0.00 | 0.00 | 0.00 | 39 | 1007.0 |
| 20260504224537 | 85 | 353 | 2.6 | 7.8 | 0.00 | 0.00 | 0.00 | 39 | 1007.2 |
| 20260504223036 | 84 | 4 | 2.6 | 7.8 | 0.00 | 0.00 | 0.00 | 40 | 1007.4 |
| 20260504221536 | 85 | 10 | 2.6 | 8.7 | 0.00 | 0.00 | 0.00 | 38 | 1007.5 |
| 20260504220040 | 86 | 21 | 2.6 | 10.4 | 0.00 | 0.00 | 0.00 | 38 | 1007.6 |
| 20260504214535 | 85 | 341 | 1.7 | 6.1 | 0.00 | 0.00 | 0.00 | 38 | 1007.7 |
| 20260504213111 | 86 | 349 | 1.7 | 6.1 | 0.00 | 0.00 | 0.00 | 38 | 1007.9 |
| 20260504211555 | 87 | 5 | 2.6 | 7.8 | 0.00 | 0.00 | 0.00 | 37 | 1008.0 |